Location: Mentone
(34.5413°N, 85.5351°W)
Time: 06:09:15
(UTC-05:00)

Vanguard 3 - All Passes

Search period start: 06 May 2016 00:00
Search period end: 16 May 2016 00:00
Orbit: 509 x 3267 km, 33.3° (Epoch: 05 May)

Date Brightness Start Highest point End Pass type
(mag) Time Alt. Az. Time Alt. Az. Time Alt. Az.
06 May - 01:32:55 10° W 01:50:32 82° S 02:00:38 10° ESE visible
06 May - 03:51:30 10° W 04:03:50 45° SW 04:10:59 10° SE visible
06 May - 17:39:20 10° SSE 17:47:46 15° SE 17:56:49 10° ESE daylight
06 May - 19:44:55 10° SSW 20:01:56 44° SE 20:19:03 10° E visible
06 May - 21:58:13 10° WSW 22:18:16 74° SSE 22:34:13 10° E visible
07 May - 00:15:32 10° W 00:35:03 86° S 00:47:22 10° E visible
07 May - 02:34:13 10° W 02:50:00 65° SSW 02:58:51 10° SE visible
07 May - 04:53:24 10° W 05:01:37 23° SW 05:07:13 10° S visible
07 May - 18:32:21 10° S 18:46:30 31° SE 19:02:10 10° E daylight
07 May - 20:42:59 10° SW 21:01:51 63° SSE 21:19:25 10° E visible
07 May - 22:58:34 10° WSW 23:18:54 84° S 23:33:33 10° E visible
08 May - 01:16:50 10° W 01:35:12 79° SSW 01:46:04 10° ESE visible
08 May - 03:35:36 10° W 03:48:35 42° SW 03:56:18 10° SSE visible
08 May - 17:22:06 10° SSE 17:31:45 18° SE 17:42:41 10° E daylight
08 May - 19:28:58 10° SSW 19:45:46 49° SE 20:03:46 10° E visible
08 May - 21:42:23 10° WSW 22:02:20 78° SSE 22:19:11 10° E visible
08 May - 23:59:33 10° W 00:19:30 86° S 00:32:41 10° E visible
09 May - 02:18:08 10° WNW 02:34:39 62° SSW 02:44:15 10° SE visible
09 May - 04:37:59 10° W 04:46:17 21° SW 04:52:08 10° S visible
09 May - 18:16:17 10° SSW 18:30:21 35° SE 18:46:53 10° E daylight
09 May - 20:27:14 10° SW 20:45:45 67° SSE 21:04:09 10° E visible
09 May - 22:42:44 10° W 23:03:07 86° S 23:18:40 10° E visible
10 May - 01:00:45 10° W 01:19:43 77° SSW 01:31:25 10° ESE visible
10 May - 03:19:41 10° W 03:33:11 39° SW 03:41:29 10° SSE visible
10 May - 17:05:31 10° S 17:15:43 21° SE 17:27:56 10° E daylight
10 May - 19:13:15 10° SW 19:29:36 53° SSE 19:48:18 10° ENE daylight
10 May - 21:26:42 10° WSW 21:46:21 81° SSE 22:04:03 10° E visible
10 May - 23:43:37 10° W 00:03:52 85° S 00:17:54 10° ESE visible
11 May - 02:02:02 10° WNW 02:19:10 58° SSW 02:29:31 10° SE visible
11 May - 04:22:38 10° W 04:30:50 19° SW 04:36:51 10° S visible
11 May - 18:00:29 10° SSW 18:14:13 38° SE 18:31:23 10° E daylight
11 May - 20:11:40 10° WSW 20:29:39 71° SSE 20:48:45 10° E visible
11 May - 22:27:00 10° W 22:47:17 87° S 23:03:42 10° E visible
12 May - 00:44:43 10° W 01:04:07 73° SSW 01:16:40 10° ESE visible
12 May - 03:03:46 10° W 03:17:39 36° SW 03:26:31 10° SSE visible
12 May - 16:49:21 10° S 16:59:42 24° SE 17:12:47 10° E daylight
12 May - 18:57:43 10° SW 19:13:27 58° SSE 19:32:41 10° ENE daylight
12 May - 21:11:10 10° WSW 21:30:22 83° S 21:48:49 10° E visible
12 May - 23:27:46 10° W 23:48:07 83° S 00:03:02 10° ESE visible
13 May - 01:45:58 10° WNW 02:03:33 54° SSW 02:14:39 10° SE visible
13 May - 04:07:24 10° W 04:15:16 17° SW 04:21:19 10° SSW visible
13 May - 15:43:18 10° SE 15:45:57 11° SE 15:48:46 10° ESE daylight
13 May - 17:44:55 10° SSW 17:58:07 42° SE 18:15:42 10° E daylight
13 May - 19:56:17 10° WSW 20:13:35 75° SSE 20:33:15 10° E visible
13 May - 22:11:23 10° W 22:31:24 87° S 22:48:38 10° E visible
14 May - 00:28:43 10° W 00:48:23 70° SSW 01:01:48 10° ESE visible
14 May - 02:47:53 10° W 03:01:58 33° SW 03:11:25 10° SSE visible
14 May - 16:33:32 10° S 16:43:44 26° SE 16:57:21 10° E daylight
14 May - 18:42:23 10° SW 18:57:23 62° SSE 19:16:57 10° ENE daylight
14 May - 20:55:46 10° WSW 21:14:23 85° S 21:33:29 10° E visible
14 May - 23:11:59 10° W 23:32:16 81° SSW 23:48:03 10° ESE visible
15 May - 01:29:57 10° WNW 01:47:46 50° SW 01:59:39 10° SE visible
15 May - 03:52:26 10° W 03:59:37 15° SW 04:05:25 10° SSW visible
15 May - 15:25:23 10° SSE 15:30:08 13° SE 15:35:39 10° ESE daylight
15 May - 17:29:34 10° SSW 17:42:06 46° SE 17:59:52 10° ENE daylight
15 May - 19:41:02 10° WSW 19:57:33 78° SSE 20:17:38 10° E visible
15 May - 21:55:51 10° W 22:15:28 86° S 22:33:27 10° E visible
